GW3491 Weather Reports


Display with metric or nautical units.
time (UTC)temp
F
wind
direction
speed
MPH
gust
MPH
rain 1hr
in
rain 24hr
in
rain mn
in
humidity
%
barometer
mb
20260504225908 68 258 2.0 4.0 0.00 0.00 0.00 19 998.4
20260504225359 68 284 3.0 6.0 0.00 0.00 0.00 18 998.4
20260504224856 68 255 3.0 7.0 0.00 0.00 0.00 16 998.1
20260504224353 69 254 4.0 6.0 0.00 0.00 0.00 16 998.1
20260504223850 69 257 4.0 7.0 0.00 0.00 0.00 15 998.1
20260504223345 69 266 5.0 8.0 0.00 0.00 0.00 15 998.4
20260504222842 69 258 6.0 9.0 0.00 0.00 0.00 14 998.1
20260504222339 69 243 5.0 6.0 0.00 0.00 0.00 14 998.1
20260504221837 69 275 2.0 3.0 0.00 0.00 0.00 17 998.1
20260504221333 69 257 3.0 6.0 0.00 0.00 0.00 18 998.1
20260504220831 69 255 6.0 15.0 0.00 0.00 0.00 18 998.4
20260504220327 68 259 3.0 9.0 0.00 0.00 0.00 17 998.1
20260504215824 68 278 4.0 10.0 0.00 0.00 0.00 20 998.1
20260504215321 68 266 5.0 8.0 0.00 0.00 0.00 19 998.1
20260504214817 65 263 3.0 4.0 0.00 0.00 0.00 20 998.1
20260504214315 69 255 4.0 6.0 0.00 0.00 0.00 17 998.1
20260504213811 68 264 3.0 7.0 0.00 0.00 0.00 19 998.1
20260504213307 68 274 4.0 7.0 0.00 0.00 0.00 19 998.1
20260504212804 68 270 5.0 10.0 0.00 0.00 0.00 18 998.1
20260504212300 68 269 3.0 10.0 0.00 0.00 0.00 16 998.4
20260504211758 69 292 4.0 9.0 0.00 0.00 0.00 13 998.1
20260504211254 69 265 7.0 10.0 0.00 0.00 0.00 18 998.1
20260504210752 68 259 4.0 7.0 0.00 0.00 0.00 17 998.1
20260504210249 68 269 5.0 7.0 0.00 0.00 0.00 18 998.1
20260504205746 67 260 6.0 9.0 0.00 0.00 0.00 19 997.7
20260504205243 67 263 4.0 8.0 0.00 0.00 0.00 19 998.1
20260504204741 67 261 6.0 7.0 0.00 0.00 0.00 19 998.1
20260504204239 67 264 5.0 6.0 0.00 0.00 0.00 19 998.1
20260504203739 67 277 3.0 4.0 0.00 0.00 0.00 19 997.7
20260504203235 67 270 2.0 4.0 0.00 0.00 0.00 19 998.1
20260504202735 66 273 4.0 6.0 0.00 0.00 0.00 20 998.1
20260504202233 66 290 3.0 4.0 0.00 0.00 0.00 19 998.1
20260504201730 66 287 3.0 8.0 0.00 0.00 0.00 19 998.1
20260504201227 66 287 4.0 8.0 0.00 0.00 0.00 19 998.1
20260504200725 67 257 8.0 9.0 0.00 0.00 0.00 19 998.1
20260504200220 67 291 4.0 7.0 0.00 0.00 0.00 20 998.1
20260504195717 68 257 5.0 7.0 0.00 0.00 0.00 19 998.1
20260504195213 67 265 7.0 10.0 0.00 0.00 0.00 19 998.1
20260504194710 68 271 3.0 7.0 0.00 0.00 0.00 18 998.4
20260504194206 67 269 5.0 9.0 0.00 0.00 0.00 19 998.1
20260504193703 68 256 4.0 8.0 0.00 0.00 0.00 20 998.1
20260504193200 67 247 8.0 13.0 0.00 0.00 0.00 19 998.4
20260504192658 66 254 5.0 8.0 0.00 0.00 0.00 19 998.1
20260504192156 66 262 7.0 8.0 0.00 0.00 0.00 20 998.1
20260504191655 66 244 7.0 11.0 0.00 0.00 0.00 19 998.4
20260504191150 66 258 5.0 8.0 0.00 0.00 0.00 18 998.4
20260504190646 66 291 3.0 6.0 0.00 0.00 0.00 19 998.4
20260504190143 66 291 6.0 9.0 0.00 0.00 0.00 20 998.4
20260504185640 66 265 7.0 10.0 0.00 0.00 0.00 20 998.4
20260504185136 66 291 3.0 6.0 0.00 0.00 0.00 19 998.4
20260504184633 66 266 6.0 9.0 0.00 0.00 0.00 20 998.4
20260504184127 65 257 5.0 7.0 0.00 0.00 0.00 21 998.4
20260504183625 65 285 4.0 7.0 0.00 0.00 0.00 21 998.4
20260504183122 65 289 6.0 8.0 0.00 0.00 0.00 21 998.4
20260504182620 65 277 9.0 11.0 0.00 0.00 0.00 20 998.1
20260504182117 64 254 7.0 9.0 0.00 0.00 0.00 18 998.4
20260504181614 65 265 9.0 14.0 0.00 0.00 0.00 20 998.4
20260504181112 65 258 11.0 15.0 0.00 0.00 0.00 20 998.4
20260504180611 65 253 9.0 11.0 0.00 0.00 0.00 20 998.4
20260504180109 65 255 7.0 11.0 0.00 0.00 0.00 20 998.4
20260504175606 65 265 4.0 8.0 0.00 0.00 0.00 20 998.4
20260504175103 65 257 9.0 10.0 0.00 0.00 0.00 20 998.4
20260504174601 65 250 7.0 9.0 0.00 0.00 0.00 20 998.1
20260504174057 65 257 8.0 10.0 0.00 0.00 0.00 20 998.4
20260504173554 65 267 4.0 8.0 0.00 0.00 0.00 20 998.1
20260504173052 64 247 6.0 13.0 0.00 0.00 0.00 20 998.4
20260504172548 64 176 4.0 10.0 0.00 0.00 0.00 20 998.4
20260504172044 64 284 1.0 8.0 0.00 0.00 0.00 18 998.4
20260504171541 64 277 3.0 7.0 0.00 0.00 0.00 18 998.4
20260504171038 64 270 6.0 8.0 0.00 0.00 0.00 18 998.4
20260504170534 64 264 7.0 8.0 0.00 0.00 0.00 18 998.4
20260504150918 60 292 9.0 9.0 0.00 0.00 0.00 17 999.1
20260504150415 60 268 9.0 10.0 0.00 0.00 0.00 18 999.4
20260504140835 56 263 9.0 10.0 0.00 0.00 0.00 20 1000.4
20260504140331 55 254 2.0 9.0 0.00 0.00 0.00 18 1000.4
20260504130759 53 262 6.0 6.0 0.00 0.00 0.00 18 1000.8
20260504130255 53 252 4.0 8.0 0.00 0.00 0.00 18 1000.8
20260504120219 48 258 4.0 4.0 0.00 0.00 0.00 22 1001.1
20260504110647 45 272 1.0 3.0 0.00 0.00 0.00 19 1001.8
20260504110143 45 272 1.0 2.0 0.00 0.00 0.00 19 1001.8
20260504100609 44 264 3.0 3.0 0.00 0.00 0.00 19 1001.4
20260504100108 44 276 1.0 3.0 0.00 0.00 0.00 20 1001.4
20260504082003 44 295 0.0 2.0 0.00 0.00 0.00 18 1001.4
20260504081501 45 261 4.0 7.0 0.00 0.00 0.00 19 1001.4
20260504081001 45 250 3.0 4.0 0.00 0.00 0.00 18 1001.1
20260504080458 45 266 2.0 4.0 0.00 0.00 0.00 18 1001.4
20260504050305 35 291 0.0 0.0 0.00 0.00 0.00 32 1001.1
20260504045802 36 327 0.0 1.0 0.00 0.00 0.00 32 1001.1
20260504045257 36 264 0.0 1.0 0.00 0.00 0.00 30 1001.1
20260504044754 36 9 1.0 1.0 0.00 0.00 0.00 29 1001.1
20260504044252 37 353 1.0 1.0 0.00 0.00 0.00 28 1001.4
20260504043749 38 290 0.0 0.0 0.00 0.00 0.00 28 1001.4
20260504043246 39 347 1.0 1.0 0.00 0.00 0.00 25 1001.4
20260504042744 37 133 1.0 1.0 0.00 0.00 0.00 28 1001.1
20260504042240 38 274 0.0 1.0 0.00 0.00 0.00 28 1001.1
20260504041736 38 231 1.0 1.0 0.00 0.00 0.00 27 1001.4
20260504041232 38 49 1.0 1.0 0.00 0.00 0.00 26 1001.1
20260504040728 38 287 0.0 0.0 0.00 0.00 0.00 28 1000.8
20260504040226 38 332 0.0 1.0 0.00 0.00 0.00 28 1000.8
20260504035722 39 31 1.0 1.0 0.00 0.00 0.00 25 1000.8
20260504035219 40 273 0.0 0.0 0.00 0.00 0.00 22 1000.8
20260504034717 41 278 0.0 0.0 0.00 0.00 0.00 21 1000.8
20260504034214 41 285 0.0 0.0 0.00 0.00 0.00 21 1000.8
20260504033712 41 285 0.0 0.0 0.00 0.00 0.00 22 1000.8
20260504033209 42 287 0.0 0.0 0.00 0.00 0.00 21 1001.1
20260504032705 43 276 0.0 0.0 0.00 0.00 0.00 21 1000.8
20260504032203 43 292 0.0 1.0 0.00 0.00 0.00 21 1000.8
20260504031659 43 291 0.0 0.0 0.00 0.00 0.00 20 1000.8
20260504031156 43 292 0.0 0.0 0.00 0.00 0.00 20 1000.8
20260504030652 44 292 0.0 0.0 0.00 0.00 0.00 19 1000.8
20260504030149 44 291 0.0 1.0 0.00 0.00 0.00 19 1001.1
20260504025646 44 271 2.0 2.0 0.00 0.00 0.00 19 1000.8
20260504025142 44 281 2.0 2.0 0.00 0.00 0.00 19 1000.8
20260504024634 44 272 1.0 2.0 0.00 0.00 0.00 19 1000.8
20260504024131 44 279 0.0 1.0 0.00 0.00 0.00 19 1000.8
20260504023627 44 272 0.0 0.0 0.00 0.00 0.00 19 1000.8
20260504023124 44 287 0.0 1.0 0.00 0.00 0.00 19 1001.1
20260504022620 45 279 1.0 1.0 0.00 0.00 0.00 18 1000.8
20260504022116 45 274 1.0 2.0 0.00 0.00 0.00 19 1000.8
20260504021614 45 276 2.0 3.0 0.00 0.00 0.00 19 1000.8
20260504021110 45 260 2.0 3.0 0.00 0.00 0.00 19 1000.8
20260504020608 46 270 2.0 3.0 0.00 0.00 0.00 19 1001.1
20260504020104 46 271 2.0 4.0 0.00 0.00 0.00 18 1000.8
20260504015600 46 259 2.0 4.0 0.00 0.00 0.00 18 1000.8
20260504015056 47 277 4.0 6.0 0.00 0.00 0.00 22 1000.8
20260504014552 47 283 4.0 4.0 0.00 0.00 0.00 22 1000.8
20260504014050 47 284 4.0 4.0 0.00 0.00 0.00 22 1000.8
20260504013547 47 281 4.0 4.0 0.00 0.00 0.00 22 1001.1
20260504013044 47 282 5.0 7.0 0.00 0.00 0.00 22 1001.1
20260504012541 47 275 3.0 4.0 0.00 0.00 0.00 22 1000.8
20260504012039 47 281 3.0 4.0 0.00 0.00 0.00 22 1000.8
20260504011536 47 282 3.0 4.0 0.00 0.00 0.00 22 1000.8
20260504011032 47 281 3.0 4.0 0.00 0.00 0.00 22 1000.8
20260504010527 47 273 4.0 4.0 0.00 0.00 0.00 22 1000.4
20260504010024 47 274 4.0 4.0 0.00 0.00 0.00 22 1000.4
20260504005521 47 286 2.0 3.0 0.00 0.00 0.00 22 1000.4
20260504005018 47 281 3.0 3.0 0.00 0.00 0.00 22 1000.4
20260504004516 47 285 3.0 4.0 0.00 0.00 0.00 22 1000.4
20260504004013 47 286 3.0 4.0 0.00 0.00 0.00 22 1000.1
20260504003509 48 294 4.0 7.0 0.00 0.00 0.00 22 1000.1
20260504003006 48 289 4.0 6.0 0.00 0.00 0.00 22 1000.1
20260504002503 48 297 5.0 7.0 0.00 0.00 0.00 22 1000.1
20260504002000 48 295 3.0 6.0 0.00 0.00 0.00 22 1000.1
20260504001457 48 294 5.0 7.0 0.00 0.00 0.00 22 1000.1
20260504000954 48 292 4.0 8.0 0.00 0.00 0.00 22 999.7
20260504000451 48 288 5.0 6.0 0.00 0.00 0.00 22 999.7
20260503235948 48 290 4.0 6.0 0.00 0.00 0.00 22 999.4
20260503235446 48 291 6.0 7.0 0.00 0.00 0.00 22 999.7
20260503234943 48 291 4.0 7.0 0.00 0.00 0.00 21 999.7
20260503234440 48 291 5.0 7.0 0.00 0.00 0.00 21 999.4
20260503233939 48 284 5.0 7.0 0.00 0.00 0.00 21 999.7
20260503233435 49 293 4.0 6.0 0.00 0.00 0.00 21 999.1
20260503232931 49 291 4.0 6.0 0.00 0.00 0.00 20 999.4
20260503232428 49 297 5.0 9.0 0.00 0.00 0.00 20 999.1
20260503231926 49 297 6.0 8.0 0.00 0.00 0.00 21 999.1
20260503231423 50 329 6.0 8.0 0.00 0.00 0.00 21 999.1
20260503230920 49 293 7.0 9.0 0.00 0.00 0.00 21 999.4
20260503230416 49 329 4.0 9.0 0.00 0.00 0.00 21 999.1
20260503225914 50 295 8.0 9.0 0.00 0.00 0.00 21 999.1